This is the latest recevied weather packets stored in our database for station/object W4MSI. If no packets are shown the sender has not sent any weather packets the latest 10 day(s).
| Time | Temp. | Humidity | Pressure | Rain* | Wind** | Luminosity | Snow |
|---|---|---|---|---|---|---|---|
| 1777219431 | 23.89° C | 60% | 1014.6 hPa | 0 mm | - | 727 W/m² | - |
| 1777219127 | 23.33° C | 59% | 1014.3 hPa | 0 mm | - | 725 W/m² | - |
| 1777218823 | 22.78° C | 61% | 1014.6 hPa | 0 mm | - | 705 W/m² | - |
| 1777218519 | 22.22° C | 60% | 1014.5 hPa | 0 mm | - | 694 W/m² | - |
| 1777218214 | 22.22° C | 62% | 1014.5 hPa | 0 mm | - | 690 W/m² | - |
| 1777217912 | 22.78° C | 62% | 1014.7 hPa | 0 mm | - | 672 W/m² | - |
| 1777217611 | 22.22° C | 65% | 1014.7 hPa | 0 mm | - | 656 W/m² | - |
| 1777217308 | 22.22° C | 65% | 1014.8 hPa | 0 mm | - | 648 W/m² | - |
| 1777217003 | 22.22° C | 63% | 1014.5 hPa | 0 mm | - | 634 W/m² | - |
| 1777216701 | 21.67° C | 66% | 1014.6 hPa | 0 mm | - | 614 W/m² | - |
| 1777216396 | 21.11° C | 67% | 1014.5 hPa | 0 mm | - | 608 W/m² | - |
| 1777216096 | 21.11° C | 67% | 1014.5 hPa | 0 mm | - | 589 W/m² | - |
| 1777215791 | 21.11° C | 68% | 1014.6 hPa | 0 mm | - | 574 W/m² | - |
| 1777215487 | 21.11° C | 69% | 1014.5 hPa | 0 mm | - | 562 W/m² | - |
| 1777215184 | 20.56° C | 69% | 1014.4 hPa | 0 mm | - | 544 W/m² | - |
| 1777214879 | 20.56° C | 70% | 1014.4 hPa | 0 mm | - | 524 W/m² | - |
| 1777214578 | 20° C | 74% | 1014.1 hPa | 0 mm | - | 512 W/m² | - |
| 1777214273 | 19.44° C | 72% | 1014.2 hPa | 0 mm | - | 492 W/m² | - |
| 1777213972 | 19.44° C | 71% | 1014.3 hPa | 0 mm | - | 469 W/m² | - |
| 1777213667 | 19.44° C | 73% | 1014.3 hPa | 0 mm | - | 458 W/m² | - |
| 1777213363 | 18.89° C | 73% | 1014.1 hPa | 0 mm | - | 435 W/m² | - |
| 1777213061 | 18.89° C | 73% | 1013.9 hPa | 0 mm | - | 413 W/m² | - |
| 1777212758 | 18.33° C | 74% | 1014.3 hPa | 0 mm | - | 390 W/m² | - |
| 1777212453 | 18.33° C | 73% | 1013.9 hPa | 0 mm | - | 377 W/m² | - |
| 1777212147 | 18.33° C | 75% | 1014.2 hPa | 0 mm | - | 356 W/m² | - |
* Rain latest hour (hover to see other rain measurements)
** Current wind speed in m/s (hover to see current wind gust speed)